sat.trackr.live / text

‹ back to catalog

STARLINK-3738

NORAD 52117 · 2022-029AF

PAYLOAD ACTIVE UNKNOWN

§ Identity

Operator
Country
US
Launch date
2022-03-19
Launch site
AFETR
Launch vehicle
Mass (kg)
RCS (m²)

Purposes: comms

External: N2YO · Heavens-Above · Gunter

§ Orbital elements

Epoch: 2026-05-25T02:24:45.727200Z

Period
95.44 min
Inclination
53.2127°
Eccentricity
0.0001244
Mean motion
15.08856472 rev/d
Perigee alt
538.8 km
Apogee alt
540.6 km
Semi-major
6,917.8 km
B*
-2.5467e-4
RAAN
96.0983°
Arg perigee
70.9946°
Mean anomaly
289.1181°
Rev number
23,233

§ Raw data

STARLINK-37381 52117U 22029AF  26145.10052925 -.00004341  00000+0 -25467-3 0  99932 52117  53.2127  96.0983 0001244  70.9946 289.1181 15.08856472232338

JSON: /api/v1/satellites/52117 · /tle

For live sub-satellite position, see the globe view (requires WebGL).

§ Visibility from observer

Set your observer location to see the next 7 days of passes ≥ 10°. The values pass through the URL so the page stays shareable.

No JS? Fill the form by hand. The geolocation button needs JavaScript.